• In Latvia
  • List of Countries
  • For 7 days
  • Water Temperature
  • Satellite Maps
  • Weather Map
  • Weather Widgets
  • user-avatar
    Login

    Hourly Weather Bory

    Today, 17 August, Friday

    Time Temperature Precipitation Wind Pressure Humidity
    00:00 +15°C° 0 mm 1 mps 704 mmHg 90%
    01:00 +15°C° 0 mm 1 mps 704 mmHg 91%
    02:00 +14°C° 0 mm 1 mps 704 mmHg 91%
    03:00 +14°C° 0 mm 1 mps 704 mmHg 91%
    04:00 +14°C° 0 mm 1 mps 704 mmHg 91%
    05:00 +15°C° 0 mm 1 mps 704 mmHg 86%
    06:00 +18°C° 0 mm 1 mps 704 mmHg 81%
    07:00 +19°C° 0 mm 1 mps 705 mmHg 77%
    08:00 +21°C° 0 mm 1 mps 705 mmHg 69%
    09:00 +23°C° 0 mm 1 mps 705 mmHg 61%
    10:00 +25°C° 0 mm 1 mps 705 mmHg 53%
    11:00 +26°C° 0.2 mm 1 mps 705 mmHg 52%
    12:00 +26°C° 0.2 mm 1 mps 705 mmHg 52%
    13:00 +26°C° 0.2 mm 1 mps 705 mmHg 51%
    14:00 +26°C° 0.6 mm 1 mps 705 mmHg 54%
    15:00 +26°C° 0.6 mm 1 mps 704 mmHg 57%
    16:00 +25°C° 0.6 mm 1 mps 704 mmHg 59%
    17:00 +23°C° 0.3 mm 1 mps 704 mmHg 65%
    18:00 +22°C° 0.3 mm 1 mps 704 mmHg 70%
    19:00 +20°C° 0.3 mm 1 mps 703 mmHg 75%
    20:00 +19°C° 0 mm 1 mps 704 mmHg 77%
    21:00 +18°C° 0 mm 1 mps 704 mmHg 79%
    22:00 +18°C° 0 mm 1 mps 704 mmHg 82%
    23:00 +16°C° 0 mm 1 mps 704 mmHg 82%

    Tomorrow, 18 August, Saturday

    Time Temperature Precipitation Wind Pressure Humidity
    00:00 +16°C° 0 mm 1 mps 704 mmHg 83%
    01:00 +16°C° 0 mm 1 mps 704 mmHg 84%
    02:00 +16°C° 0 mm 1 mps 704 mmHg 83%
    03:00 +15°C° 0 mm 1 mps 704 mmHg 83%
    04:00 +15°C° 0 mm 1 mps 704 mmHg 83%
    05:00 +18°C° 0 mm 1 mps 705 mmHg 80%
    06:00 +19°C° 0 mm 1 mps 705 mmHg 77%
    07:00 +21°C° 0 mm 1 mps 706 mmHg 73%
    08:00 +22°C° 0 mm 1 mps 706 mmHg 65%
    09:00 +24°C° 0 mm 1 mps 706 mmHg 57%
    10:00 +26°C° 0 mm 2 mps 707 mmHg 49%
    11:00 +26°C° 0 mm 2 mps 707 mmHg 47%
    12:00 +27°C° 0 mm 2 mps 707 mmHg 45%
    13:00 +27°C° 0 mm 2 mps 707 mmHg 44%
    14:00 +27°C° 0 mm 2 mps 706 mmHg 46%
    15:00 +27°C° 0 mm 2 mps 706 mmHg 48%
    16:00 +26°C° 0 mm 2 mps 706 mmHg 51%
    17:00 +24°C° 0.1 mm 2 mps 706 mmHg 58%
    18:00 +22°C° 0.1 mm 1 mps 706 mmHg 65%
    19:00 +20°C° 0.1 mm 1 mps 706 mmHg 73%
    20:00 +20°C° 0 mm 1 mps 706 mmHg 75%
    21:00 +19°C° 0 mm 1 mps 706 mmHg 77%
    22:00 +18°C° 0 mm 1 mps 706 mmHg 79%
    23:00 +18°C° 0 mm 1 mps 706 mmHg 81%

    Day after tomorrow, 19 August, Sunday

    Time Temperature Precipitation Wind Pressure Humidity
    00:00 +18°C° 0 mm 1 mps 706 mmHg 82%
    01:00 +16°C° 0 mm 1 mps 706 mmHg 84%
    02:00 +16°C° 0 mm 1 mps 706 mmHg 85%
    03:00 +16°C° 0 mm 1 mps 706 mmHg 86%
    04:00 +15°C° 0 mm 1 mps 706 mmHg 87%
    05:00 +18°C° 0 mm 1 mps 706 mmHg 83%
    06:00 +19°C° 0 mm 1 mps 707 mmHg 78%
    07:00 +21°C° 0 mm 1 mps 707 mmHg 74%
    08:00 +22°C° 0 mm 1 mps 707 mmHg 68%
    09:00 +24°C° 0 mm 1 mps 708 mmHg 61%
    10:00 +25°C° 0 mm 2 mps 708 mmHg 54%
    11:00 +26°C° 0 mm 2 mps 708 mmHg 52%
    12:00 +26°C° 0 mm 2 mps 708 mmHg 50%
    13:00 +27°C° 0 mm 2 mps 707 mmHg 48%
    14:00 +27°C° 0.1 mm 2 mps 707 mmHg 49%
    15:00 +27°C° 0.1 mm 2 mps 707 mmHg 51%
    16:00 +26°C° 0.1 mm 2 mps 707 mmHg 52%
    17:00 +24°C° 0 mm 2 mps 707 mmHg 60%
    18:00 +21°C° 0 mm 2 mps 706 mmHg 67%
    19:00 +20°C° 0 mm 1 mps 706 mmHg 74%
    20:00 +20°C° 0 mm 1 mps 706 mmHg 77%
    21:00 +19°C° 0 mm 1 mps 706 mmHg 79%
    22:00 +18°C° 0 mm 1 mps 706 mmHg 82%
    23:00 +18°C° 0 mm 1 mps 706 mmHg 83%

    20 August, Monday

    Time Temperature Precipitation Wind Pressure Humidity
    00:00 +16°C° 0 mm 1 mps 706 mmHg 85%
    01:00 +15°C° 0 mm 0 mps 705 mmHg 86%
    02:00 +15°C° 0 mm 0 mps 705 mmHg 87%
    03:00 +14°C° 0 mm 0 mps 705 mmHg 88%
    04:00 +15°C° 0 mm 1 mps 705 mmHg 89%
    05:00 +16°C° 0 mm 0 mps 705 mmHg 84%
    06:00 +17°C° 0 mm 0 mps 706 mmHg 79%
    07:00 +19°C° 0 mm 0 mps 706 mmHg 74%
    08:00 +22°C° 0 mm 1 mps 706 mmHg 67%
    09:00 +24°C° 0 mm 1 mps 707 mmHg 59%
    10:00 +25°C° 0 mm 2 mps 707 mmHg 51%
    11:00 +26°C° 0 mm 2 mps 707 mmHg 49%
    12:00 +26°C° 0 mm 2 mps 706 mmHg 47%
    13:00 +27°C° 0 mm 2 mps 706 mmHg 45%
    14:00 +27°C° 0 mm 2 mps 706 mmHg 46%
    15:00 +27°C° 0 mm 2 mps 706 mmHg 47%
    16:00 +26°C° 0 mm 2 mps 706 mmHg 49%
    17:00 +25°C° 0 mm 2 mps 706 mmHg 57%
    18:00 +23°C° 0 mm 1 mps 705 mmHg 65%
    19:00 +21°C° 0 mm 1 mps 705 mmHg 73%
    20:00 +20°C° 0 mm 1 mps 705 mmHg 76%
    21:00 +19°C° 0 mm 1 mps 705 mmHg 80%
    22:00 +18°C° 0 mm 1 mps 705 mmHg 84%
    23:00 +18°C° 0 mm 1 mps 705 mmHg 85%

    21 August, Tuesday

    Time Temperature Precipitation Wind Pressure Humidity
    00:00 +18°C° 0 mm 1 mps 705 mmHg 87%
    01:00 +16°C° 0 mm 1 mps 705 mmHg 88%
    02:00 +16°C° 0 mm 1 mps 705 mmHg 89%
    03:00 +16°C° 0 mm 1 mps 705 mmHg 89%
    04:00 +16°C° 0 mm 1 mps 705 mmHg 89%
    05:00 +18°C° 0 mm 1 mps 705 mmHg 84%
    06:00 +18°C° 0 mm 0 mps 706 mmHg 79%
    07:00 +19°C° 0 mm 0 mps 706 mmHg 74%
    08:00 +21°C° 0 mm 0 mps 706 mmHg 65%
    09:00 +25°C° 0 mm 1 mps 707 mmHg 56%
    10:00 +27°C° 0 mm 1 mps 707 mmHg 48%
    11:00 +28°C° 0 mm 1 mps 707 mmHg 45%
    12:00 +28°C° 0 mm 1 mps 707 mmHg 43%
    13:00 +29°C° 0 mm 1 mps 706 mmHg 40%
    14:00 +29°C° 0 mm 1 mps 706 mmHg 42%
    15:00 +29°C° 0 mm 1 mps 706 mmHg 43%
    16:00 +28°C° 0 mm 1 mps 706 mmHg 44%
    17:00 +26°C° 0 mm 1 mps 706 mmHg 51%
    18:00 +24°C° 0 mm 1 mps 705 mmHg 58%
    19:00 +22°C° 0 mm 1 mps 705 mmHg 65%
    20:00 +21°C° 0 mm 1 mps 705 mmHg 67%
    21:00 +20°C° 0 mm 1 mps 705 mmHg 70%
    22:00 +20°C° 0 mm 1 mps 705 mmHg 72%
    23:00 +19°C° 0 mm 1 mps 705 mmHg 73%

    22 August, Wednesday

    Time Temperature Precipitation Wind Pressure Humidity
    00:00 +19°C° 0 mm 1 mps 705 mmHg 75%
    01:00 +19°C° 0 mm 1 mps 705 mmHg 76%
    02:00 +16°C° 0 mm 0 mps 705 mmHg 77%
    03:00 +16°C° 0 mm 0 mps 705 mmHg 78%
    04:00 +16°C° 0 mm 0 mps 705 mmHg 79%
    05:00 +17°C° 0 mm 0 mps 705 mmHg 75%
    06:00 +19°C° 0 mm 0 mps 706 mmHg 71%
    07:00 +20°C° 0 mm 0 mps 706 mmHg 67%
    08:00 +22°C° 0 mm 0 mps 706 mmHg 62%
    09:00 +26°C° 0 mm 1 mps 707 mmHg 56%
    10:00 +27°C° 0 mm 1 mps 707 mmHg 50%
    11:00 +28°C° 0.2 mm 1 mps 707 mmHg 50%
    12:00 +28°C° 0.2 mm 1 mps 706 mmHg 50%
    13:00 +28°C° 0.2 mm 1 mps 706 mmHg 50%
    14:00 +28°C° 0.3 mm 1 mps 706 mmHg 52%
    15:00 +27°C° 0.3 mm 1 mps 706 mmHg 55%
    16:00 +27°C° 0.3 mm 1 mps 705 mmHg 57%
    17:00 +25°C° 0.7 mm 1 mps 705 mmHg 63%
    18:00 +23°C° 0.7 mm 1 mps 705 mmHg 69%
    19:00 +21°C° 0.7 mm 1 mps 705 mmHg 76%
    20:00 +20°C° 0.5 mm 1 mps 705 mmHg 79%
    21:00 +20°C° 0.5 mm 1 mps 705 mmHg 83%
    22:00 +19°C° 0.5 mm 1 mps 705 mmHg 87%
    23:00 +18°C° 0.2 mm 1 mps 705 mmHg 88%
    Show more